Flag for Canada Weather past 2 weeks in Coral Harbour, Nunavut, Canada

Now
19 °F

Passing clouds.


Feels Like: 2 °F
Forecast: 14 / 28 °F
Wind: 24 mph from North

Location: Coral Harbour

Current Time: May 23, 2015 at 3:06:09 AM

Latest Report: May 23, 2015 at 2:00 AM


Visibility: 15 mi

Pressure: 29.69 "Hg

Humidity: 79%

Dew point: 14 °F

Location of Coral HarbourLocation

Historic Weather in Coral Harbour — Graph

°F

Coral Harbour temperature yesterday

Maximum temperature yesterday: 34 °F (at 10:00 AM)
Minimum temperature yesterday: 14 °F (at 11:00 PM)
Average temperature yesterday: 28 °F

Past Weeks' High & Low Weather Summary

 TemperatureHumidityPressure
High34 °F (May 13, 3:00 PM)100% (May 15, 9:00 PM)30.33 "Hg (May 15, 9:00 PM)
Low-2 °F (May 11, 4:00 AM)62% (May 11, 9:00 PM)29.35 "Hg (May 16, 2:00 AM)
Average19 °F78%29.91 "Hg
* Reported May 8 2:00 AM — May 23 2:00 AM, Coral Harbour, Weather by CustomWeather, © 2015

Note: Actual official high and low records may vary slightly from our data, if they occured in-between our weather recording intervals... More about our weather records

Advertising

Coral Harbour weather history for previous 24 hours

 ConditionsComfort  
Time TempWeatherWind HumidityBarometerVisibility
2:00 AM
Sat, May 23
19 °FPassing clouds.24 mph79%29.69 "Hg15 mi
1:00 AM21 °FPassing clouds.24 mph74%29.69 "Hg15 mi
12:00 AM18 °FPassing clouds.20 mph79%29.68 "Hg15 mi
11:00 PM
Fri, May 22
14 °FPassing clouds.13 mph85%29.70 "Hg15 mi
10:00 PM18 °FPassing clouds.20 mph79%29.70 "Hg15 mi
9:00 PM19 °FScattered clouds.20 mph79%29.69 "Hg15 mi
8:00 PM21 °FScattered clouds.21 mph80%29.68 "Hg15 mi
7:00 PM25 °FPartly sunny.24 mph74%29.67 "Hg15 mi
6:00 PM27 °FScattered clouds.22 mph74%29.67 "Hg15 mi
5:00 PM28 °FPassing clouds.21 mph74%29.66 "Hg15 mi
4:00 PM30 °FPassing clouds.26 mph75%29.64 "Hg15 mi
3:00 PM30 °FPassing clouds.22 mph75%29.63 "Hg15 mi
2:00 PM32 °FPassing clouds.28 mph75%29.61 "Hg15 mi
1:00 PM34 °FPartly sunny.23 mph75%29.59 "Hg15 mi
12:00 PM34 °FMore clouds than sun.17 mph75%29.59 "Hg15 mi
11:00 AM34 °FMore clouds than sun.17 mph75%29.58 "Hg15 mi
10:00 AM34 °FLight snow. Mostly cloudy.8 mph75%29.59 "Hg12 mi
9:00 AM32 °FLight snow. Low clouds.15 mph80%29.58 "Hg10 mi
8:00 AM32 °FLight snow. Low clouds.15 mph87%29.58 "Hg8 mi
7:00 AM30 °FLight snow. Low clouds.15 mph93%29.59 "Hg6 mi
6:00 AM30 °FLight snow. Low clouds.15 mph86%29.62 "Hg8 mi
5:00 AM30 °FLight snow. Low clouds.12 mph86%29.63 "Hg6 mi
4:00 AM30 °FLight snow. Low clouds.12 mph93%29.63 "Hg6 mi
3:00 AM30 °FLight snow. Overcast.8 mph93%29.66 "Hg1 mi
Weather by CustomWeather, © 2015

See weather overviewHow to use our weather pages